Weather History for KEUG - April, 2014

Change the Weather History Date:

Thursday, April 24, 2014

  Actual Average Record
Temperature  
Mean Temperature 55 °F 51 °F  
Max Temperature 59 °F 62 °F 79 °F (1927)
Min Temperature 50 °F 40 °F 29 °F (1924)
Degree Days  
Heating Degree Days 10 14  
Month to date heating degree days 299 367  
Since 1 July heating degree days 4351 4263  
Cooling Degree Days 0 0  
Month to date cooling degree days 0 0  
Year to date cooling degree days 0 0  
Growing Degree Days 2 (Base 50)    
Moisture  
Dew Point 45 °F    
Average Humidity 70    
Maximum Humidity 89    
Minimum Humidity 51    
Precipitation  
Precipitation 0.38 in 0.10 in 0.63 in (1975)
Month to date precipitation 1.60 2.81  
Year to date precipitation 18.68 20.10  
Sea Level Pressure  
Sea Level Pressure 29.89 in    
Wind  
Wind Speed 12 mph (SW)    
Max Wind Speed 18 mph    
Max Gust Speed 25 mph    
Visibility 9 miles    
Events Rain    
T = Trace of Precipitation, MM = Missing Value Source: NWS Daily Summary

Daily Weather History Graph

Daily Weather History Graph

Search for Another Location

Airport or City:

Trip Planner

Search our weather history database for the weather conditions in past years. The results will help you decide how hot, cold, wet, or windy it might be!

Date:

Astronomy

Apr. 24, 2014 Rise Set
Actual Time 6:14 AM PDT 8:08 PM PDT
Civil Twilight 5:43 AM PDT 8:39 PM PDT
Nautical Twilight 5:05 AM PDT 9:17 PM PDT
Astronomical Twilight 4:24 AM PDT 9:58 PM PDT
Moon 3:40 AM PDT (4/24) 3:19 PM PDT (4/24)
Length of Visible Light 14h 55m
Length of Day
13h 53m
Waning Crescent, 23% of the Moon is Illuminated
Apr 24
Waning Crescent
Apr 28
New
May 6
First Quarter
May 14
Full
May 21
Last Quarter

Hourly Weather History & Observations

Time (PDT) Temp. Windchill Dew Point Humidity Pressure Visibility Wind Dir Wind Speed Gust Speed Precip Events Conditions
12:54 AM 52.0 °F - 48.9 °F 89% 29.83 in 10.0 mi South 10.4 mph - 0.02 in Rain Light Rain
1:54 AM 52.0 °F - 48.9 °F 89% 29.82 in 10.0 mi South 13.8 mph - 0.00 in   Overcast
2:54 AM 52.0 °F - 48.9 °F 89% 29.81 in 8.0 mi South 11.5 mph - 0.03 in Rain Light Rain
3:54 AM 52.0 °F - 48.9 °F 89% 29.81 in 6.0 mi SSW 15.0 mph - 0.06 in Rain Light Rain
4:16 AM 52.0 °F - 48.9 °F 89% 29.81 in 8.0 mi SSW 10.4 mph - 0.03 in Rain Light Rain
4:27 AM 51.1 °F - 48.9 °F 92% 29.81 in 7.0 mi SSW 12.7 mph - 0.03 in Rain Light Rain
4:40 AM 51.1 °F - 48.9 °F 92% 29.81 in 7.0 mi South 11.5 mph - 0.04 in Rain Light Rain
4:54 AM 51.1 °F - 48.9 °F 92% 29.82 in 5.0 mi South 11.5 mph - 0.06 in Rain Light Rain
5:32 AM 51.1 °F - 48.9 °F 92% 29.81 in 6.0 mi South 11.5 mph - 0.04 in Rain Light Rain
5:54 AM 51.1 °F - 48.9 °F 92% 29.81 in 7.0 mi South 10.4 mph - 0.05 in Rain Light Rain
6:52 AM 51.8 °F - 48.2 °F 88% 29.83 in 8.0 mi South 13.8 mph - 0.00 in Rain Light Rain
6:54 AM 52.0 °F - 48.0 °F 86% 29.83 in 8.0 mi South 12.7 mph - 0.00 in Rain Light Rain
7:54 AM 50.0 °F - 46.9 °F 89% 29.88 in 9.0 mi WSW 8.1 mph - 0.15 in Rain Light Rain
8:54 AM 52.0 °F - 46.9 °F 83% 29.90 in 10.0 mi SW 9.2 mph - 0.00 in   Mostly Cloudy
9:54 AM 52.0 °F - 46.9 °F 83% 29.92 in 10.0 mi SSW 10.4 mph - N/A   Overcast
10:54 AM 52.0 °F - 46.0 °F 80% 29.94 in 9.0 mi WSW 11.5 mph - 0.02 in   Overcast
11:54 AM 57.0 °F - 48.9 °F 74% 29.94 in 10.0 mi SW 12.7 mph - 0.00 in   Mostly Cloudy
12:54 PM 55.0 °F - 46.9 °F 74% 29.96 in 10.0 mi WSW 15.0 mph 23.0 mph 0.01 in   Overcast
1:54 PM 57.0 °F - 46.9 °F 69% 29.96 in 10.0 mi SW 16.1 mph 25.3 mph 0.00 in   Mostly Cloudy
2:54 PM 57.9 °F - 44.1 °F 60% 29.96 in 10.0 mi WSW 11.5 mph - N/A   Mostly Cloudy
3:54 PM 57.0 °F - 39.0 °F 51% 29.96 in 10.0 mi WSW 13.8 mph 21.9 mph N/A   Mostly Cloudy
4:54 PM 57.9 °F - 39.9 °F 51% 29.96 in 10.0 mi West 13.8 mph 19.6 mph N/A   Mostly Cloudy
5:54 PM 54.0 °F - 41.0 °F 62% 29.96 in 10.0 mi West 10.4 mph - N/A   Mostly Cloudy
6:54 PM 53.1 °F - 41.0 °F 64% 29.95 in 10.0 mi West 9.2 mph - N/A   Mostly Cloudy
7:54 PM 50.0 °F - 39.0 °F 66% 29.95 in 10.0 mi West 10.4 mph - N/A   Mostly Cloudy
8:54 PM 48.0 °F - 41.0 °F 77% 29.96 in 10.0 mi West 5.8 mph - N/A   Overcast
9:54 PM 48.0 °F - 41.0 °F 77% 29.96 in 10.0 mi Calm Calm - N/A   Overcast
10:54 PM 44.1 °F 42.5 °F 41.0 °F 89% 29.95 in 10.0 mi SE 3.5 mph - N/A   Overcast
11:54 PM 46.0 °F - 41.0 °F 83% 29.94 in 10.0 mi Calm Calm - N/A   Partly Cloudy